Location: Pontbriand
(46.1542°N, 71.2542°W)
Time: 23:43:37
(UTC+00:00)

Envisat - Pass Details

Date: 02 December 2021
Orbit: 764 x 766 km, 98.2° (Epoch: 19 January)

Event Time Altitude Azimuth Distance (km) Brightness Sun altitude
Rises 08:27:34 0° 30° (NNE) 3,243 6.7 -37.4°
Reaches altitude 10° 08:30:51 10° 52° (NE) 2,310 6.0 -36.9°
Maximum altitude 08:33:52 16° 89° (E) 1,936 5.7 -36.4°
Drops below altitude 10° 08:36:53 10° 126° (SE) 2,299 6.0 -35.8°
Sets 08:40:06 0° 148° (SSE) 3,219 6.6 -35.3°
